This is the latest recevied weather packets stored in our database for station/object iw0uwf-4. If no packets are shown the sender has not sent any weather packets the latest 1 day(s).
| Time | Temp. | Humidity | Pressure | Rain* | Wind** | Luminosity | Snow |
|---|---|---|---|---|---|---|---|
| 1777984023 | 23.33° C | 57% | 1006.2 hPa | 0 mm | 1.79 m/s, 209° | 0 W/m² | - |
| 1777983964 | 23.33° C | 56% | 1006.2 hPa | 0 mm | 1.79 m/s, 273° | 0 W/m² | - |
| 1777983903 | 22.78° C | 55% | 1006.2 hPa | 0 mm | 2.24 m/s, 224° | 0 W/m² | - |
| 1777983843 | 22.78° C | 55% | 1006.1 hPa | 0 mm | 2.24 m/s, 236° | 0 W/m² | - |
| 1777983783 | 22.78° C | 54% | 1006.3 hPa | 0 mm | 1.79 m/s, 188° | 0 W/m² | - |
| 1777983723 | 22.22° C | 58% | 1006.3 hPa | 0 mm | 1.79 m/s, 212° | 0 W/m² | - |
| 1777983663 | 22.22° C | 58% | 1006.2 hPa | 0 mm | 1.79 m/s, 250° | 0 W/m² | - |
| 1777983424 | 22.78° C | 56% | 1006.3 hPa | 0 mm | 2.24 m/s, 221° | 0 W/m² | - |
| 1777983364 | 22.78° C | 56% | 1006.3 hPa | 0 mm | 2.24 m/s, 223° | 0 W/m² | - |
| 1777983304 | 22.78° C | 57% | 1006.3 hPa | 0 mm | 2.24 m/s, 236° | 0 W/m² | - |
| 1777983244 | 22.78° C | 59% | 1006.3 hPa | 0 mm | 2.24 m/s, 250° | 0 W/m² | - |
| 1777983184 | 22.78° C | 60% | 1006.3 hPa | 0 mm | 2.24 m/s, 249° | 0 W/m² | - |
| 1777983124 | 22.78° C | 60% | 1006.5 hPa | 0 mm | 2.24 m/s, 255° | 0 W/m² | - |
| 1777983064 | 22.22° C | 61% | 1006.4 hPa | 0 mm | 2.24 m/s, 269° | 0 W/m² | - |
| 1777983015 | 22.22° C | 64% | 1006.3 hPa | 0 mm | 2.24 m/s, 282° | 0 W/m² | - |
| 1777982944 | 21.67° C | 64% | 1006.4 hPa | 0 mm | 2.24 m/s, 290° | 0 W/m² | - |
| 1777982885 | 21.67° C | 64% | 1006.5 hPa | 0 mm | 2.24 m/s, 288° | 0 W/m² | - |
| 1777982824 | 21.67° C | 65% | 1006.3 hPa | 0 mm | 2.24 m/s, 298° | 0 W/m² | - |
| 1777982764 | 20° C | 66% | 1006.3 hPa | 0 mm | 2.24 m/s, 305° | 0 W/m² | - |
| 1777982703 | 20° C | 66% | 1006.4 hPa | 0 mm | 2.24 m/s, 305° | 0 W/m² | - |
| 1777982643 | 20° C | 66% | 1006.5 hPa | 0 mm | 2.24 m/s, 301° | 0 W/m² | - |
| 1777982583 | 20° C | 66% | 1006.4 hPa | 0 mm | 2.24 m/s, 294° | 0 W/m² | - |
| 1777982523 | 20° C | 66% | 1006.5 hPa | 0 mm | 2.24 m/s, 287° | 0 W/m² | - |
| 1777982463 | 20° C | 66% | 1006.4 hPa | 0 mm | 2.24 m/s, 276° | 0 W/m² | - |
| 1777982403 | 20° C | 66% | 1006.6 hPa | 0 mm | 2.24 m/s, 263° | 0 W/m² | - |
* Rain latest hour (hover to see other rain measurements)
** Current wind speed in m/s (hover to see current wind gust speed)